Terug naar catalogus

SL-12 DEB

ActiefHEO
NORAD 41641·DEBRIS·🇷🇺 Russia

Gelanceerd Dec 25, 2008 vanaf Baikonur Cosmodrome

Loading…

Volgende Passages (komende 24 uur)

TLE

VersSource: Space-Track

Epoch: Sep 8, 2026, 23:38 UTC

1 41641U 08067M   26251.98501555 -.00000102  00000-0 -16775-2 0  9994
2 41641  65.0779 105.7872 5544200 280.6968  24.3583  4.29359450158539

Volg SL-12 DEB in realtime met AllMySat

Download on the App Store